Flag for Germany Weather past 2 weeks in Leutkirch im Allgäu, Baden-Württemberg, Germany

Now
53 °F

Fog.


Feels Like: 53 °F
Forecast: 49 / 65 °F
Wind: 1 mph from Northeast

Location: Kempten

Current Time: Sep 2, 2014 at 9:56:47 PM

Latest Report: Sep 2, 2014 at 9:00 PM


Visibility: 3 mi

Pressure: 30.16 "Hg

Humidity: 95%

Dew point: 51 °F

Location of Leutkirch im AllgäuLocation

Historic Weather in Leutkirch im Allgäu — Graph

°F

Leutkirch im Allgäu temperature yesterday

Maximum temperature yesterday: 56 °F (at 7:00 PM)
Minimum temperature yesterday: 49 °F (at 10:00 PM)
Average temperature yesterday: 52 °F

Past Weeks' High & Low Weather Summary

 TemperatureHumidityPressure
High71 °F (Aug 29, 3:00 PM)100% (Aug 19, 6:00 AM)30.20 "Hg (Aug 19, 6:00 AM)
Low40 °F (Aug 25, 5:00 AM)43% (Aug 22, 3:00 PM)29.75 "Hg (Aug 26, 3:00 PM)
Average57 °F80%30.02 "Hg
* Reported Aug 18 8:00 PM — Sep 2 8:00 PM, Leutkirch im Allgäu, Weather by CustomWeather, © 2014

Note: Actual official high and low records may vary slightly from our data, if they occured in-between our weather recording intervals... More about our weather records

Advertising

Leutkirch im Allgäu weather history for previous 24 hours

 ConditionsComfort  
Time TempWeatherWind HumidityBarometerVisibility
8:00 PM
Sep 2
54 °FOvercast.1 mph91%30.14 "Hg4 mi
7:00 PM56 °FDrizzle. Overcast.2 mph84%30.13 "Hg6 mi
6:00 PM58 °FOvercast.2 mph70%30.10 "Hg12 mi
4:00 PM59 °FOvercast.1 mph62%30.10 "Hg13 mi
3:00 PM59 °FOvercast.1 mph68%30.11 "Hg17 mi
2:00 PM58 °FOvercast.2 mph64%30.11 "Hg14 mi
1:00 PM57 °FOvercast.2 mph72%30.13 "Hg7 mi
12:00 PM57 °FOvercast.1 mph68%30.13 "Hg9 mi
10:00 AM53 °FOvercast.1 mph85%30.14 "Hg11 mi
9:00 AM51 °FOvercast.1 mph89%30.15 "Hg10 mi
8:00 AM50 °FOvercast.1 mph94%30.16 "Hg5 mi
7:00 AM49 °FFog.1 mph97%30.16 "Hg4 mi
6:00 AM49 °FOvercast.1 mph96%30.15 "Hg6 mi
4:00 AM49 °FFog.2 mph96%30.16 "Hg4 mi
3:00 AM50 °FFog.1 mph96%30.16 "Hg4 mi
2:00 AM50 °FFog.1 mph96%30.16 "Hg3 mi
1:00 AM50 °FFog.1 mph96%30.18 "Hg3 mi
12:00 AM50 °FFog.1 mph97%30.19 "Hg3 mi
10:00 PM
Sep 1
49 °FFog.2 mph96%30.19 "Hg3 mi
9:00 PM51 °FOvercast.1 mph92%30.19 "Hg6 mi
Weather by CustomWeather, © 2014

See weather overviewHow to use our weather pages